Location: Eymir
(36.7333°N, 29.7833°E)
Time: 04:27:44
(UTC+00:00)

Daily predictions for brighter satellites

Satellite Brightness Start Highest point End
(mag) Time Altitude Azimuth Time Altitude Azimuth Time Altitude Azimuth
ATLAS CENTAUR Rocket 3.6 02:29:42 43° SSW 02:30:40 45° S 02:49:53 10° ESE
IRS-1D 4.4 02:40:42 10° NNE 02:45:52 50° E 02:51:00 10° S
Atlas Centaur 2 4.0 02:46:29 17° S 02:48:54 22° SSE 02:53:50 10° ESE
Sich 1 4.5 02:47:44 10° SSE 02:51:34 35° E 02:55:23 10° NNE
Cosmos 909 Rocket 4.2 03:01:18 36° NNW 03:04:20 83° ENE 03:12:03 10° SSE
BlueWalker 3 3.8 03:08:00 20° SSE 03:08:00 20° SSE 03:09:20 10° SSE
Sakura Rocket 4.4 03:05:53 31° SSW 03:06:52 33° S 03:12:12 10° ESE
Cosmos 1302 Rocket 4.0 03:09:17 39° NNW 03:11:17 84° ENE 03:16:31 10° SSE
Meteor 1-13 Rocket 4.3 03:12:34 52° WNW 03:13:26 56° W 03:19:11 10° S
Cosmos 1452 Rocket 4.1 03:27:53 35° WSW 03:27:53 35° WSW 03:31:59 10° SSW
BREEZE-M DEB (TANK) 3.6 03:27:04 48° NW 03:28:13 88° SSW 03:38:23 10° SE
BREEZE-M DEB (TANK) 4.1 03:14:44 10° SW 03:28:36 90° SSE 03:33:55 10° ENE
Cosmos 2278 Rocket 2.5 03:27:41 10° S 03:33:16 69° ESE 03:38:53 10° NNE
NOAA 12 4.1 03:29:02 10° N 03:34:08 55° WNW 03:39:13 10° SSW
BREEZE M DEB (TANK) 4.1 03:33:01 18° N 03:34:40 24° NE 03:40:16 10° E
Cosmos 2074 Rocket 4.1 03:31:29 10° S 03:37:46 83° E 03:44:06 10° N
CZ-4 R/B 3.8 03:33:43 10° N 03:38:25 58° WNW 03:43:11 10° SSW
ARIANE 6 FM1 Upper Stage 3.2 03:37:21 24° NNW 03:39:29 53° NE 03:43:24 10° SE
SeaSat 1 3.3 03:36:00 10° NE 03:40:46 50° ESE 03:45:29 10° S
Gbstr 26 Del rocket 4.2 03:33:57 14° SW 03:40:46 78° NW 03:47:30 10° NE
Cosmos 1992 Rocket 3.9 03:37:57 12° NNW 03:42:49 87° ENE 03:48:01 10° SSE
SL-12 R/B(2) 4.3 03:37:22 10° SSW 03:44:54 78° ESE 03:53:57 10° NE
Cosmos 1515 Rocket 3.6 03:44:43 19° NNW 03:47:40 51° W 03:51:53 10° SSW
Cosmos 1833 Rocket 2.6 03:43:25 17° NNW 03:47:47 67° WSW 03:53:19 10° S
Cosmos 1743 Rocket 3.9 03:46:24 10° S 03:50:48 69° E 03:55:11 10° NNE
Cosmos 1758 3.6 03:47:40 10° S 03:51:20 61° E 03:55:01 10° NNE
Meteor 2-13 Rocket 4.3 03:47:02 10° N 03:53:09 76° W 03:59:12 10° S
Lacrosse 4 Rocket 3.2 03:52:39 10° S 03:56:14 33° ESE 03:59:47 10° NE
Nadezhda 3 Rocket 4.3 03:52:01 10° N 03:58:16 71° E 04:04:33 10° SSE
Cosmos 1140 Rocket 3.5 03:54:23 10° SSW 03:59:28 83° ESE 04:04:35 10° NNE
Cosmos 1943 Rocket 2.1 03:56:41 10° SW 04:02:06 59° WNW 04:07:32 10° NNE
COSMO-SKYMED 1 2.7 04:00:42 10° S 04:04:38 46° W 04:08:36 10° NNW
Okean 3 3.2 04:01:59 10° N 04:05:59 81° W 04:09:57 10° S
ARIANE 5 R/B 4.3 04:02:37 10° NNE 04:07:17 35° E 04:11:51 10° SSE
Cosmos 1023 Rocket 4.3 04:03:47 10° SSW 04:08:49 73° WNW 04:13:55 10° NNE
Timation 1 Rocket 4.5 04:06:20 10° NNW 04:12:21 79° ENE 04:18:20 10° SSE
MOS 1 Rocket 4.0 04:08:20 10° NNE 04:12:44 53° E 04:16:55 10° S
Meteor 2-10 Rocket 3.6 04:08:23 10° SSW 04:13:13 48° WNW 04:18:14 10° N
Cosmos 2154 Rocket 4.0 04:07:25 10° SSW 04:13:37 59° W 04:19:50 10° N
Cosmos 1805 Rocket 4.0 04:10:47 10° SSW 04:14:52 37° WNW 04:18:59 10° N
USA 234 3.3 04:11:15 10° NE 04:17:50 86° NW 04:24:24 10° SW
Cosmos 1484 Rocket 2.8 04:15:39 10° N 04:18:51 39° WNW 04:22:03 10° SW
CBERS-1 3.9 04:15:57 10° N 04:21:01 71° WNW 04:26:04 10° SSW
Cosmos 1500 Rocket 4.3 04:19:58 10° SW 04:23:45 29° WNW 04:27:36 10° NNW
Tiangong 1.1 04:22:36 10° S 04:24:07 13° SE 04:25:39 10° ESE
CORIOLIS 4.2 04:22:20 10° NNE 04:27:48 87° WNW 04:33:13 10° SSW
Sich 1 4.5 04:26:19 10° WSW 04:28:49 15° WNW 04:31:18 10° NW
Landsat 7 3.8 04:26:08 10° NNE 04:30:49 87° W 04:35:27 10° SSW
ATLAS 2AS CENTAUR R/B 3.5 04:25:39 10° NNW 04:32:09 48° NE 04:38:39 10° SE
Cosmos 407 Rocket 3.6 04:28:12 10° SSW 04:33:18 82° ESE 04:38:29 10° NNE
IGS 5A 4.2 04:30:37 10° NNW 04:33:58 27° WNW 04:37:21 10° SW
Atlas Centaur 2 3.6 04:30:49 10° WSW 04:36:39 45° SSE 04:43:42 10° E
SMAP 3.0 04:32:35 10° N 04:37:13 65° WNW 04:41:48 10° SSW
Timation 2 Rocket 4.5 04:32:18 10° SW 04:38:30 40° WNW 04:44:31 10° N
SJ 16-02 3.2 04:35:33 10° SSE 04:39:23 34° E 04:43:15 10° NE
Thor Agena Rocket 3.5 04:36:30 10° N 04:41:36 73° WNW 04:46:44 10° SSW
CZ-2D R/B 2.6 04:38:48 10° N 04:41:54 78° WNW 04:44:59 10° SSW
Okean 1-7 3.3 04:38:51 10° N 04:42:58 69° E 04:47:07 10° SSE
DELTA 2 R/B(2) 4.0 04:40:57 10° W 04:44:03 46° N 04:45:52 10° ENE
Cosmos 921 Rocket 4.4 04:42:16 10° WSW 04:45:08 17° WNW 04:47:59 10° NNW
